Stations météo

Publicité
Garmisch-Partenkirchen, Allemagne (10963): Température de l'air & dewpoint: 11.12.2018 13:00:00 - 17.12.2018 13:00:00 (CET)Garmisch-Partenkirchen, Allemagne (10963): Température de l'air 5cm & Température de l'air -5cm: 11.12.2018 13:00:00 - 17.12.2018 13:00:00 (CET)Garmisch-Partenkirchen, Allemagne (10963): Température de l'air -20cm & Température de l'air -100cm: 11.12.2018 13:00:00 - 17.12.2018 13:00:00 (CET)Garmisch-Partenkirchen, Allemagne (10963): Vitesse du vent & gusts: 11.12.2018 13:00:00 - 17.12.2018 13:00:00 (CET)Garmisch-Partenkirchen, Allemagne (10963): Direction du vent: 11.12.2018 13:00:00 - 17.12.2018 13:00:00 (CET)Garmisch-Partenkirchen, Allemagne (10963): reduced air pressure: 11.12.2018 13:00:00 - 17.12.2018 13:00:00 (CET)Garmisch-Partenkirchen, Allemagne (10963): visibility: 11.12.2018 13:00:00 - 17.12.2018 13:00:00 (CET)Garmisch-Partenkirchen, Allemagne (10963): Ensoleillement: 11.12.2018 13:00:00 - 17.12.2018 13:00:00 (CET)Garmisch-Partenkirchen, Allemagne (10963): Quantités de précipitations: 11.12.2018 13:00:00 - 17.12.2018 13:00:00 (CET)
Date & Time tt [°C] td [°C] tt 5cm [°C] tt -5cm [°C] tt -20cm [°C] tt -100cm [°C] ff [km/h] ff [knt] fx [km/h] fx [knt] dd ppp [hPa] vv [km] sd [min] rr [mm]
17.12.2018 13:00:00 2,3 -2,0 0,0 -0,3 0,4 5,9 2 1 6 3 WSW 1024,1 63 11 0,0
17.12.2018 12:00:00 2,8 -1,9 0,7 -0,4 0,4 5,9 2 1 5 3 E 1023,8 60 48 0,0
17.12.2018 11:00:00 -1,0 -2,5 -1,2 -0,5 0,4 5,9 0 0 7 4 N 1025,2 40 15 0,0
17.12.2018 10:00:00 -3,0 -3,9 -3,4 -0,5 0,4 5,9 2 1 6 3 WSW 1025,4 37 0 0,0
17.12.2018 09:00:00 -4,4 -5,3 -4,8 -0,6 0,4 5,9 3 1 5 3 SW 1024,8 42 0 0,0
17.12.2018 08:00:00 -5,5 -6,3 -7,1 -0,6 0,4 5,9 3 2 5 3 WSW 1023,9 53 0 0,0
17.12.2018 07:00:00 -5,6 -6,5 -7,0 -0,6 0,4 5,9 3 2 7 4 SW 1023,0 57 0 0,0
17.12.2018 06:00:00 -5,4 -6,1 -7,3 -0,6 0,4 5,9 2 1 6 3 WNW 1021,9 54 0 0,0
17.12.2018 05:00:00 -5,4 -6,1 -7,4 -0,5 0,4 5,9 3 2 5 3 SW 1021,3 48 0 0,0
17.12.2018 04:00:00 -5,2 -6,1 -7,4 -0,5 0,4 5,9 4 2 6 3 S 1020,3 53 0 0,0
17.12.2018 03:00:00 -4,5 -5,1 -6,9 -0,4 0,4 5,9 3 2 7 4 WSW 1020,0 39 0 0,0
17.12.2018 02:00:00 -4,2 -4,8 -6,5 -0,4 0,4 5,9 0 0 5 3 N 1019,6 25 0 0,0
17.12.2018 01:00:00 -3,1 -3,5 -5,9 -0,3 0,4 5,9 3 1 5 3 WNW 1019,3 21 0 0,0
17.12.2018 00:00:00 -1,9 -2,5 -3,1 -0,3 0,4 5,9 5 3 8 4 SSW 1019,0 15 0 0,0
16.12.2018 23:00:00 -1,1 -1,5 -1,4 -0,3 0,4 6,0 3 2 5 3 WSW 1018,8 26 0 0,0
16.12.2018 22:00:00 -1,6 -2,2 -1,8 -0,4 0,4 6,0 3 2 5 3 SW 1019,1 17 0 0,0
16.12.2018 21:00:00 -2,1 -2,5 -2,6 -0,4 0,4 6,0 3 2 9 5 SSW 1019,2 20 0 0,0
16.12.2018 20:00:00 -3,2 -3,6 -5,0 -0,4 0,4 6,0 3 2 7 4 WSW 1019,3 15 0 0,0
16.12.2018 19:00:00 -3,1 -3,6 -5,7 -0,4 0,4 6,0 4 2 6 3 SW 1018,7 11 0 0,0
16.12.2018 18:00:00 -2,1 -2,6 -4,7 -0,3 0,4 6,0 4 2 8 4 WSW 1018,1 17 0 0,0
16.12.2018 17:00:00 -0,6 -1,4 -2,5 -0,3 0,4 6,0 4 2 7 4 WSW 1017,2 21 0 0,0
16.12.2018 16:00:00 0,1 -0,9 -1,6 -0,3 0,4 6,0 3 2 9 5 SSW 1016,6 20 0 0,0
16.12.2018 15:00:00 -0,3 -1,6 -2,6 -0,3 0,4 6,0 3 2 6 3 SSW 1016,2 21 0 0,0
16.12.2018 14:00:00 0,0 -1,9 -2,0 -0,3 0,4 6,0 3 2 7 4 SW 1015,5 22 0 0,0
16.12.2018 13:00:00 0,6 -2,1 0,0 -0,4 0,4 6,0 4 2 9 5 SW 1015,2 21 30 0,0
16.12.2018 12:00:00 0,3 -1,8 0,1 -0,4 0,3 6,0 2 1 5 3 SW 1015,7 25 4 0,1
16.12.2018 11:00:00 -1,2 -2,9 -0,2 -0,5 0,3 6,0 3 2 7 4 W 1016,5 19 0 0,0
16.12.2018 10:00:00 -2,4 -3,6 -1,5 -0,6 0,3 6,1 3 1 4 2 SW 1016,7 35 0 0,2
16.12.2018 09:00:00 -3,7 -4,6 -2,6 -0,7 0,3 6,1 3 2 6 3 WSW 1017,2 4,7 0 0,3
16.12.2018 08:00:00 -4,4 -5,2 -3,2 -0,8 0,3 6,1 3 1 8 4 SSE 1017,2 8 0 0,6
16.12.2018 07:00:00 -5,4 -7,0 -4,1 -0,9 0,3 6,1 4 2 7 4 WSW 1018,3 6 0 0,0
16.12.2018 06:00:00 -6,3 -7,8 -4,8 -1,0 0,3 6,1 2 1 9 5 W 1018,3 61 0 0,0
16.12.2018 05:00:00 -7,3 -8,8 -6,1 -1,1 0,3 6,1 3 2 6 3 SW 1018,7 53 0 0,0
16.12.2018 04:00:00 -7,9 -9,1 -6,3 -1,2 0,4 6,1 3 2 9 5 W 1019,8 52 0 0,0
16.12.2018 03:00:00 -9,0 -10,1 -7,4 -1,3 0,4 6,1 3 1 8 5 NNW 1020,7 48 0 0,0
16.12.2018 02:00:00 -10,7 -12,2 -9,5 -1,4 0,4 6,1 4 2 7 4 WSW 1022,4 37 0 0,0
16.12.2018 01:00:00 -12,5 -14,1 -12,5 -1,4 0,4 6,1 4 2 6 4 WSW 1024,1 34 0 0,0
16.12.2018 00:00:00 -12,1 -13,7 -12,8 -1,4 0,5 6,1 3 1 8 4 WSW 1024,8 32 0 0,0
15.12.2018 23:00:00 -12,2 -13,5 -12,6 -1,3 0,5 6,1 4 2 8 4 WSW 1025,6 24 0 0,0
15.12.2018 22:00:00 -11,6 -13,0 -12,6 -1,2 0,5 6,1 3 2 7 4 NNW 1025,9 30 0 0,0
15.12.2018 21:00:00 -11,5 -13,0 -12,6 -1,2 0,5 6,1 4 2 7 4 W 1026,9 26 0 0,0
15.12.2018 20:00:00 -11,1 -12,4 -12,3 -1,1 0,5 6,2 3 2 6 3 W 1027,6 31 0 0,0
15.12.2018 19:00:00 -10,7 -11,8 -12,0 -1,0 0,6 6,2 4 2 10 5 SW 1027,8 25 0 0,0
15.12.2018 18:00:00 -10,9 -11,9 -12,0 -0,9 0,6 6,2 5 3 8 4 SW 1028,3 19 0 0,0
15.12.2018 17:00:00 -10,0 -11,1 -11,3 -0,8 0,6 6,2 3 1 5 3 WSW 1028,2 21 0 0,0
15.12.2018 16:00:00 -9,9 -11,6 -9,4 -0,6 0,6 6,2 3 1 6 3 SW 1028,1 30 0 0,0
15.12.2018 15:00:00 -8,5 -10,5 -7,5 -0,5 0,6 6,2 3 2 8 4 WSW 1027,3 23 20 0,0
15.12.2018 14:00:00 -5,2 -10,1 -1,0 -0,4 0,6 6,2 5 3 8 5 SW 1026,1 42 60 0,0
15.12.2018 13:00:00 -4,8 -10,1 1,8 -0,4 0,6 6,2 5 3 10 5 S 1026,5 54 60 0,0
15.12.2018 12:00:00 -5,0 -10,1 1,5 -0,5 0,6 6,2 6 3 10 6 S 1027,1 56 60 0,0
15.12.2018 11:00:00 -6,8 -10,6 -3,3 -0,5 0,6 6,2 5 3 11 6 SSW 1028,7 38 39 0,0
15.12.2018 10:00:00 -7,9 -10,9 -5,2 -0,6 0,6 6,2 6 3 12 7 SSW 1029,4 48 0 0,0
15.12.2018 09:00:00 -9,2 -11,5 -7,2 -0,7 0,6 6,2 7 4 11 6 SSW 1029,8 26 0 0,0
15.12.2018 08:00:00 -9,7 -11,7 -8,3 -0,7 0,6 6,2 7 4 11 6 SW 1029,6 39 0 0,0
15.12.2018 07:00:00 -9,4 -11,7 -8,0 -0,6 0,6 6,3 6 4 14 8 SW 1029,2 23 0 0,0
15.12.2018 06:00:00 -9,1 -11,5 -7,4 -0,6 0,7 6,3 6 3 14 8 SW 1028,9 24 0 0,0
15.12.2018 05:00:00 -9,1 -12,0 -7,5 -0,7 0,7 6,3 6 4 12 6 SW 1028,5 48 0 0,0
15.12.2018 04:00:00 -8,8 -10,4 -7,8 -0,7 0,7 6,3 6 3 11 6 SSW 1028,3 38 0 0,0
15.12.2018 03:00:00 -8,7 -10,6 -7,5 -0,7 0,7 6,3 4 2 9 5 SSW 1028,1 42 0 0,0
15.12.2018 02:00:00 -8,9 -10,8 -8,0 -0,7 0,7 6,3 6 4 10 6 SSW 1027,4 35 0 0,0
15.12.2018 01:00:00 -8,5 -10,3 -7,6 -0,6 0,7 6,3 5 3 12 6 SSW 1027,2 24 0 0,0
15.12.2018 00:00:00 -8,3 -10,3 -8,5 -0,6 0,7 6,3 5 3 9 5 SW 1027,0 33 0 0,0
14.12.2018 23:00:00 -7,8 -9,6 -7,1 -0,6 0,7 6,3 5 3 10 6 SSW 1026,8 28 0 0,0
14.12.2018 22:00:00 -7,7 -9,5 -6,8 -0,6 0,7 6,3 4 2 12 7 SSW 1026,5 29 0 0,0
14.12.2018 21:00:00 -7,7 -9,8 -6,6 -0,6 0,8 6,3 5 3 10 5 SW 1026,2 26 0 0,0
14.12.2018 20:00:00 -7,8 -9,5 -7,3 -0,6 0,8 6,3 5 3 10 5 SSW 1025,3 22 0 0,0
14.12.2018 19:00:00 -8,3 -9,7 -7,8 -0,7 0,8 6,3 2 1 5 3 WSW 1025,1 29 0 0,0
14.12.2018 18:00:00 -9,7 -10,9 -11,1 -0,7 0,8 6,3 3 2 6 3 WSW 1025,0 25 0 0,0
14.12.2018 17:00:00 -9,9 -11,3 -11,7 -0,6 0,9 6,4 3 1 6 3 SW 1024,6 17 0 0,0
14.12.2018 16:00:00 -9,9 -11,4 -10,4 -0,5 0,9 6,4 4 2 6 3 WSW 1023,7 23 0 0,0
14.12.2018 15:00:00 -9,3 -11,4 -6,8 -0,4 0,9 6,4 3 2 10 5 SSW 1022,9 29 20 0,0
14.12.2018 14:00:00 -6,0 -10,0 -0,5 -0,3 0,9 6,4 5 3 8 5 SSW 1021,4 43 60 0,0
14.12.2018 13:00:00 -4,5 -9,5 1,4 -0,4 0,9 6,4 3 2 6 3 S 1021,1 45 60 0,0
14.12.2018 12:00:00 -6,2 -9,1 0,7 -0,5 0,9 6,4 4 2 5 3 S 1021,7 43 60 0,0
14.12.2018 11:00:00 -9,0 -10,8 -5,3 -0,6 1,0 6,4 4 2 7 4 S 1022,8 29 47 0,1
14.12.2018 10:00:00 -12,7 -14,4 -13,0 -0,5 1,0 6,4 4 2 8 4 S 1023,6 29 0 0,0
14.12.2018 09:00:00 -13,2 -14,8 -13,3 -0,5 1,0 6,4 3 2 5 3 WSW 1023,7 36 0 0,0
14.12.2018 08:00:00 -13,2 -14,5 -13,5 -0,4 1,1 6,4 3 1 6 3 SSW 1023,5 39 0 0,0
14.12.2018 07:00:00 -13,4 -14,9 -13,1 -0,3 1,1 6,4 3 1 6 3 WSW 1023,2 58 0 0,0
14.12.2018 06:00:00 -12,7 -13,9 -13,3 -0,2 1,1 6,4 3 1 5 3 WSW 1022,1 71 0 0,0
14.12.2018 05:00:00 -13,0 -14,4 -12,8 -0,2 1,2 6,4 3 2 6 3 WSW 1022,0 63 0 0,0
14.12.2018 04:00:00 -12,7 -14,1 -12,6 -0,1 1,2 6,4 5 3 8 4 SSW 1021,6 28 0 0,0
14.12.2018 03:00:00 -11,8 -13,0 -12,9 0,0 1,2 6,4 3 2 6 4 W 1021,4 50 0 0,0
14.12.2018 02:00:00 -11,9 -13,1 -12,3 0,0 1,2 6,5 4 2 5 3 WSW 1021,3 40 0 0,0
14.12.2018 01:00:00 -11,2 -12,3 -12,3 0,1 1,3 6,5 2 1 6 3 NNW 1020,5 35 0 0,0
14.12.2018 00:00:00 -11,0 -12,2 -11,9 0,1 1,3 6,5 3 2 9 5 SW 1020,2 36 0 0,0
13.12.2018 23:00:00 -11,3 -12,7 -11,8 0,2 1,3 6,5 4 2 7 4 SSW 1020,3 24 0 0,0
13.12.2018 22:00:00 -11,2 -12,4 -11,3 0,2 1,3 6,5 4 2 7 4 S 1020,3 22 0 0,0
13.12.2018 21:00:00 -10,8 -11,9 -11,0 0,2 1,4 6,5 4 2 9 5 SSW 1020,0 24 0 0,0
13.12.2018 20:00:00 -9,9 -10,8 -11,2 0,3 1,4 6,5 3 1 6 3 WSW 1019,6 26 0 0,0
13.12.2018 19:00:00 -10,0 -11,0 -10,8 0,3 1,4 6,5 2 1 7 4 W 1019,3 23 0 0,0
13.12.2018 18:00:00 -9,0 -9,8 -10,8 0,4 1,4 6,5 3 1 5 3 WSW 1018,8 28 0 0,0
13.12.2018 17:00:00 -8,5 -9,3 -10,3 0,4 1,4 6,5 3 2 6 3 WSW 1018,2 23 0 0,0
13.12.2018 16:00:00 -8,1 -9,6 -8,9 0,4 1,4 6,5 4 2 7 4 SW 1018,0 24 0 0,0
13.12.2018 15:00:00 -7,3 -9,4 -6,3 0,5 1,4 6,5 4 2 9 5 SSW 1017,4 34 19 0,0
13.12.2018 14:00:00 -3,8 -8,0 0,0 0,5 1,4 6,5 3 2 8 5 SSW 1016,0 46 60 0,0
13.12.2018 13:00:00 -2,9 -8,4 0,4 0,5 1,4 6,5 5 3 10 6 S 1015,9 65 60 0,0
13.12.2018 12:00:00 -4,4 -8,3 0,0 0,5 1,5 6,6 4 2 8 4 S 1017,0 39 60 0,0
13.12.2018 11:00:00 -6,8 -9,1 -2,8 0,5 1,5 6,6 4 2 9 5 SW 1018,6 35 50 0,0
13.12.2018 10:00:00 -10,4 -11,5 -9,8 0,5 1,5 6,6 4 2 8 4 S 1020,3 38 0 0,0
13.12.2018 09:00:00 -11,0 -12,1 -10,4 0,5 1,5 6,6 3 2 6 3 S 1021,2 35 0 0,0
13.12.2018 08:00:00 -10,7 -11,7 -10,8 0,5 1,5 6,6 0 0 6 4 N 1021,1 45 0 0,0
13.12.2018 07:00:00 -10,2 -11,5 -10,6 0,5 1,5 6,6 2 1 7 4 NW 1020,9 51 0 0,0
13.12.2018 06:00:00 -9,8 -10,7 -10,4 0,5 1,5 6,6 2 1 11 6 SSE 1021,2 63 0 0,0
13.12.2018 05:00:00 -10,3 -11,3 -9,3 0,5 1,5 6,6 5 3 9 5 SSW 1022,0 51 0 0,0
13.12.2018 04:00:00 -10,1 -11,1 -9,7 0,5 1,5 6,6 5 3 7 4 SSW 1022,5 48 0 0,0
13.12.2018 03:00:00 -9,4 -10,4 -9,6 0,5 1,5 6,6 4 2 6 3 WSW 1022,8 34 0 0,0
13.12.2018 02:00:00 -8,7 -9,6 -9,4 0,5 1,5 6,6 0 0 4 2 N 1022,8 29 0 0,0
13.12.2018 01:00:00 -8,3 -9,1 -7,6 0,5 1,5 6,6 3 2 4 2 SW 1023,3 29 0 0,0
13.12.2018 00:00:00 -8,3 -9,3 -9,6 0,5 1,5 6,6 3 2 4 2 SSW 1023,7 36 0 0,0
12.12.2018 23:00:00 -7,2 -7,8 -9,1 0,5 1,5 6,7 0 0 5 3 N 1023,7 28 0 0,0
12.12.2018 22:00:00 -5,6 -6,9 -6,8 0,6 1,6 6,7 4 2 11 6 SSW 1023,4 45 0 0,0
12.12.2018 21:00:00 -4,3 -6,1 -3,3 0,6 1,6 6,7 3 2 9 5 SW 1023,3 43 0 0,0
12.12.2018 20:00:00 -4,9 -6,1 -4,6 0,6 1,6 6,7 3 2 6 3 SSW 1023,8 46 0 0,0
12.12.2018 19:00:00 -6,6 -7,2 -8,2 0,6 1,6 6,7 0 0 4 2 N 1024,6 30 0 0,0
12.12.2018 18:00:00 -6,5 -7,3 -8,5 0,6 1,6 6,7 3 2 5 3 WSW 1024,7 30 0 0,0
12.12.2018 17:00:00 -5,6 -7,1 -8,3 0,6 1,6 6,7 4 2 5 3 S 1024,3 42 0 0,0
12.12.2018 16:00:00 -4,0 -5,5 -6,6 0,6 1,6 6,7 3 1 7 4 WSW 1024,0 48 0 0,0
12.12.2018 15:00:00 -2,4 -6,0 -2,6 0,7 1,6 6,7 3 1 11 6 ESE 1023,4 69 19 0,0
12.12.2018 14:00:00 0,2 -7,9 0,0 0,7 1,7 6,7 7 4 11 6 E 1023,0 72 35 0,0
12.12.2018 13:00:00 -0,5 -7,5 0,0 0,7 1,7 6,7 2 1 6 4 WSW 1023,9 75 0 0,0
12.12.2018 12:00:00 -1,7 -7,5 -0,2 0,7 1,7 6,7 4 2 8 4 SSW 1025,1 75 0 0,0
12.12.2018 11:00:00 -3,3 -6,8 -2,7 0,7 1,7 6,8 6 3 16 9 SW 1026,2 62 25 0,0
12.12.2018 10:00:00 -4,2 -8,2 -4,4 0,7 1,7 6,8 5 3 16 9 WSW 1026,6 75 0 0,0
12.12.2018 09:00:00 -4,2 -7,8 -4,5 0,7 1,7 6,8 10 6 20 11 SW 1026,7 75 0 0,0
12.12.2018 08:00:00 -4,4 -6,9 -5,8 0,7 1,7 6,8 4 2 15 8 WSW 1026,6 75 0 0,0
12.12.2018 07:00:00 -3,3 -6,8 -3,7 0,7 1,7 6,8 7 4 19 11 SW 1025,7 75 0 0,0
12.12.2018 06:00:00 -3,5 -4,7 -3,8 0,7 1,7 6,8 3 1 7 4 W 1025,5 75 0 0,0
12.12.2018 05:00:00 -3,1 -4,0 -3,2 0,7 1,7 6,8 5 3 8 5 SW 1025,6 75 0 0,0
12.12.2018 04:00:00 -3,1 -4,3 -3,1 0,7 1,7 6,8 3 1 13 7 N 1026,1 75 0 0,0
12.12.2018 03:00:00 -3,3 -4,4 -3,2 0,7 1,7 6,8 5 3 10 6 SW 1026,1 69 0 0,0
12.12.2018 02:00:00 -3,5 -4,4 -3,5 0,7 1,8 6,8 2 1 8 5 WSW 1026,2 64 0 0,0
12.12.2018 01:00:00 -4,3 -4,9 -5,1 0,7 1,8 6,8 3 1 6 4 W 1026,5 47 0 0,0
12.12.2018 00:00:00 -4,6 -5,2 -5,6 0,8 1,8 6,8 3 1 5 3 WNW 1026,5 28 0 0,0
11.12.2018 23:00:00 -3,2 -3,7 -3,7 0,8 1,8 6,9 2 1 4 2 WSW 1026,0 33 0 0,0
11.12.2018 22:00:00 -2,5 -3,0 -3,3 0,8 1,8 6,9 0 0 5 3 N 1025,7 44 0 0,0
11.12.2018 21:00:00 -2,1 -2,7 -2,4 0,8 1,8 6,9 2 1 6 3 S 1025,7 45 0 0,0
11.12.2018 20:00:00 -1,6 -2,4 -2,1 0,8 1,8 6,9 2 1 4 2 NNW 1026,0 49 0 0,0
11.12.2018 19:00:00 -1,2 -2,3 -1,7 0,8 1,8 6,9 3 2 5 3 E 1025,6 40 0 0,0
11.12.2018 18:00:00 -1,1 -1,9 -1,1 0,8 1,9 6,9 2 1 6 3 WNW 1025,3 48 0 0,0
11.12.2018 17:00:00 -0,7 -1,9 -0,1 0,8 1,9 6,9 2 1 6 3 NW 1024,8 56 0 0,0
11.12.2018 16:00:00 0,0 -2,4 0,0 0,8 1,9 6,9 3 2 8 4 WNW 1024,4 65 0 0,0
11.12.2018 15:00:00 0,4 -2,2 0,0 0,8 1,9 6,9 2 1 17 9 NNW 1024,4 70 0 0,0
11.12.2018 14:00:00 0,8 -4,4 0,0 0,8 1,9 6,9 6 3 16 9 W 1024,2 70 1 0,0
11.12.2018 13:00:00 0,8 -3,5 0,0 0,8 1,9 6,9 5 3 16 9 SSW 1024,4 75 11 0,0

tt = Température de l'air
td = dewpoint
tt 5cm = Température de l'air 5cm
tt -5cm = Température de l'air -5cm
tt -20cm = Température de l'air -20cm
tt -100cm = Température de l'air -100cm
ff = Vitesse du vent
fx = gusts
dd = Direction du vent
ppp = reduced air pressure
vv = visibility
sd = Ensoleillement
rr = Quantités de précipitations

stations d'obs. à proximité